NARSSCUBE-1

Last updated on Thu Dec 23 2021 00:02:04 GMT+0000 (Coordinated Universal Time)

1 44792U 98067QX 21354.68492097 .10095484 12438-4 82251-3 0 9990 2 44792 51.6151 67.9911 0004550 332.9451 27.1338 16.39024930118989

Satellite not in orbit